Meath Environmental Platform

Observations for Trim Market St

Time AQI Temp °C Hum % Pres Pa CO μg/m³ H₂S μg/m³ NO μg/m³ NO₂ μg/m³ O₃ μg/m³ SO₂ μg/m³ PM1 μg/m³ PM2.5 μg/m³ PM10 μg/m³
Sunday 16 August 2026
05:39 2 14.5 70 56,272 0.25 0 2 6.5 46.56 0 2.14 4.02 6.28
05:31 2 14.6 70 56,342 0.28 0 2.59 7.68 43.11 0 2.85 4.52 6.9
05:30 2 14.6 70 56,352 0.25 0 2.6 6.18 47.05 0 2.85 4.52 6.9
05:29 2 14.7 70 56,360 0.24 0 2.53 7.47 44.75 0 2.85 4.04 6.27
05:28 2 14.7 70 56,371 0.24 0 2.72 6.39 46.83 0 2.14 5.01 7.53
05:27 2 14.7 70 56,368 0.25 0 2.61 6.38 47.4 0 2.14 4.53 6.9
05:26 2 14.7 70 56,369 0.24 0 2.57 6.13 48.11 0 2.14 4.53 7.53
05:25 2 14.7 70 56,368 0.24 0 2.5 5.6 49.01 0 2.85 4.53 6.9
05:24 2 14.7 70 56,365 0.24 0 2.1 5.04 49.35 0 2.14 5.5 8.16
05:23 2 14.7 70 56,364 0.23 0 1.88 6.12 45.77 0 2.14 3.56 6.9
05:22 2 14.7 70 56,373 0.24 0 1.82 8.25 54.51 0 2.85 4.53 8.16
05:21 2 14.7 70 56,382 0.24 0 1.78 6.49 48.82 0 3.56 5.02 7.53
05:20 2 14.7 70 56,391 0.24 0 1.57 6.23 46.46 0 2.85 4.05 6.27
05:19 2 14.7 70 56,399 0.25 0 1.85 7.89 44.82 0 2.85 4.05 6.27
05:18 2 14.8 70 56,397 0.23 0 2.28 4.94 53.15 0 4.28 5.02 7.53
05:15 2 14.8 70 56,396 0.23 0 2.21 6.94 51.77 0 2.85 4.54 6.9
05:10 2 14.8 69 56,453 0.23 0 2.88 6.41 48.86 0 2.85 4.07 6.27
05:07 2 14.9 69 56,525 0.24 0 2.55 10.55 58.27 0 2.85 4.07 6.9
05:04 2 14.9 69 56,593 0.23 0 2.06 7.38 48.89 0 2.85 4.07 6.27
04:59 2 14.9 69 56,654 0.22 0 2.75 6.61 48.03 0 2.85 4.08 6.26